Tracking 20621 objects as of 31-Mar-2020
HD Live streaming from Space Station
objects crossing your sky now

CZ-4 DEB


CZ-4 DEB is no longer on orbit


NORAD ID: 28461
Int'l Code: 2004-035G
Perigee: N/A
Apogee: N/A
Inclination: N/A
Period: N/A
Semi major axis: N/A
RCS: N/A
Launch date: September 8, 2004
Source: People's Republic of China (PRC)
Launch site: Taiyaun Space Center, China (TSC)
Decay date: 2012-02-11

Note: This is SATELLITE DEBRIS
aabbcc
Your satellite tracking list
Your tracking list is empty




NASA's NSSDC Master Catalog

Two Line Element Set (TLE):
1 28461U 04035G   12041.09887738  .08067365  24753-5  44506-2 0  9993
2 28461 097.4593 087.3278 0016965 291.4920 068.4529 16.19159503403785
Source of the keplerian elements: AFSPC